Location: Goettingen
(51.5300°N, 9.9433°E)
Time: 21:13:00
(UTC+02:00)

ISS - Pass Details

Date: 22 July 2021
Orbit: 419 x 421 km, 51.6° (Epoch: 28 July)

Event Time Altitude Azimuth Distance (km) Brightness Sun altitude
Rises 00:38:21 0° 284° (WNW) 2,373 0.4 -17.4°
Reaches altitude 10° 00:40:30 10° 278° (W) 1,506 -0.7 -17.5°
Enters shadow 00:43:31 44° 218° (SW) 591 -3.4 -17.6°
